Regional Weather Roundup
Issued by NWS

Home | Current Version | Previous Version | Graphics & Text | Print | Product List | Glossary On
Versions: 1 2 3 4 5 6 7 8 9 10 11 12 13 14 15 16 17 18 19 20 21 22 23 24 25 26 27 28 29 30 31 32 33 34 35 36 37 38 39 40 41 42 43 44 45 46 47 48 49
000
ASUS45 KBOU 210807
RWRCO

WEATHER ROUNDUP FOR COLORADO
NATIONAL WEATHER SERVICE DENVER/BOULDER CO
200 AM MDT SUN SEP 21 2014

NOTE: "FAIR" INDICATES FEW OR NO CLOUDS BELOW 12000 FEET WITH NO
SIGNIFICANT WEATHER AND/OR OBSTRUCTIONS TO VISIBILITY.

COZ001>005-013-030-031-210900-
...NORTHWEST COLORADO...

CITY           SKY/WX    TMP DP  RH WIND       PRES   REMARKS
CRAIG          CLEAR     43  34  70 CALM      30.26S
HAYDEN         CLEAR     54  30  40 E6        30.27S
MEEKER         CLEAR     51  36  56 E5        30.25F
MOUNT WERNER   NOT AVBL
STEAMBOAT SPGS CLEAR     50  38  65 NW5       30.30S
WALDEN         PTCLDY    43  36  75 S3        30.41S
$$

COZ006>008-011-210900-
...WEST CENTRAL VALLEYS...

CITY           SKY/WX    TMP DP  RH WIND       PRES   REMARKS
GRAND JUNCTION PTCLDY    66  42  41 E9        30.11R
MONTROSE       MOCLDY    69  46  43 E10       30.21R
EAGLE          PTCLDY    55  43  62 CALM      30.32S
RIFLE          CLEAR     59  42  53 S5        30.19S
DELTA          MOCLDY    70  44  39 NE5       30.17R
NUCLA          MOCLDY    66  45  45 E8        30.24R
$$

COZ017>023-064>068-210900-
...SOUTHWEST COLORADO...

CITY           SKY/WX    TMP DP  RH WIND       PRES   REMARKS
DURANGO        LGT RAIN  60  55  83 E7        30.30S
CORTEZ         LGT RAIN  62  56  80 N18G26    30.25R
PAGOSA SPRINGS CLOUDY    61  48  62 NW10      30.39S
TELLURIDE      NOT AVBL
WOLF CREEK PAS CLOUDY    41  41 100 NE15      30.67S
$$

COZ009-010-012-014-032>034-037-058>063-210900-
...CENTRAL COLORADO...

CITY           SKY/WX    TMP DP  RH WIND       PRES   REMARKS
ASPEN          PTCLDY    62  42  47 SE9G18    30.37S
BUENA VISTA    CLOUDY    52  50  92 CALM      30.51S
COPPER MTN     MOCLDY    46  36  66 S26       30.67F
BERTHOUD PASS  MOCLDY    36  34  93 SE31G39   30.73S
COTTONWOOD PAS CLOUDY    50  45  81 CALM      30.60F
GUNNISON       MOCLDY    55  43  62 NW6       30.44S
KREMMLING      MOCLDY    54  39  58 CALM      30.39S
LEADVILLE      MOCLDY    45  43  93 S3        30.58F
MONARCH PASS   HVY SNOW  41  41 100 E17       30.79S VSB<1/4
SALIDA         CLOUDY    55  52  89 CALM      30.55F
SUNLIGHT       CLEAR     52  39  62 CALM      30.57F
WILKERSON PASS NOT AVBL
$$

COZ069>075-210900-
...SAN LUIS VALLEY/SANGRE DE CRISTO MOUNTAINS...

CITY           SKY/WX    TMP DP  RH WIND       PRES   REMARKS
ALAMOSA        LGT RAIN  57  46  66 W7        30.40S
LA VETA PASS   CLOUDY    46  43  87 NE16G23   30.58F FOG
SAGUACHE       NOT AVBL
$$

COZ035-036-038>040-210900-
...NORTHERN COLORADO FRONT RANGE...

CITY           SKY/WX    TMP DP  RH WIND       PRES   REMARKS
DENVER INTL AP CLOUDY    62  50  64 E10       30.35R
DMNS CITY PARK   N/A     64  52  67 S6        30.33S
AURORA         CLOUDY    62  53  72 S5        30.36S
FRONT RANGE AP CLOUDY    63  50  63 E8        30.36S
ERIE MUNI ARPT CLOUDY    64  50  61 E6        30.34R
BOULDER MUN AP CLOUDY    63  50  63 NW10      30.35R
CENTENNIAL     CLOUDY    60  54  80 S6        30.36S
BROOMFIELD     CLOUDY    63  50  63 NE8       30.36S
FORT COLLINS   MOCLDY    63  43  48 NE6       30.38R
LONGMONT       CLOUDY    66  48  53 N8        30.38R
$$

COZ041-046-047-076>085-087-088-210900-
...PIKES PEAK/PALMER DIVIDE AND SOUTHERN FOOTHILLS...

CITY           SKY/WX    TMP DP  RH WIND       PRES   REMARKS
COLO. SPRINGS  LGT RAIN  63  48  58 S7        30.41S
A. F. ACADEMY  CLOUDY    58  53  85 CALM      30.42S
ELLICOTT       NOT AVBL
FALCON         CLOUDY    60  48  64 S3        30.45S
FORT CARSON    CLOUDY    64  53  68 W6        30.39S
LIMON          CLOUDY    56  46  69 N12       30.35R
MONUMENT HILL  CLOUDY    54  50  87 S6        30.43S
TRINIDAD       CLOUDY    64  53  67 E8        30.34S
$$

COZ042>045-048>051-090-091-210900-
...NORTHEAST COLORADO...

CITY           SKY/WX    TMP DP  RH WIND       PRES   REMARKS
GREELEY ARPT   MOCLDY    61  43  51 E7        30.36S
AKRON          PTCLDY    54  44  69 E8        30.34R
BURLINGTON     PTCLDY    60  46  59 NE8       30.30R
WRAY           CLEAR     56  46  68 CALM      30.30S
STERLING       PTCLDY    55  50  82 CALM      30.31S
HOLYOKE        PTCLDY    54  46  76 N6        30.31S
FORT MORGAN    CLOUDY    57  44  60 NE9       30.34R
$$

COZ086-089-092>099-210900-
...SOUTHEAST COLORADO...

CITY           SKY/WX    TMP DP  RH WIND       PRES   REMARKS
PUEBLO         LGT RAIN  61  58  90 SW10      30.34S
LA JUNTA       CLOUDY    65  50  58 E3        30.27R
LAMAR          CLEAR     56  49  77 S3        30.23R
SPRINGFIELD      N/A     63  55  75 N7        30.26S
$$



USA.gov is the U.S. government's official web portal to all federal, state and local government web resources and services.